Location: Arboucave
(43.6130°N, 0.4343°W)
Time: 12:23:21
(UTC+00:00)

CZ-4C R/B - Pass Details

Date: 17 November 2025
Orbit: 487 x 1492 km, 63.4° (Epoch: 11 December)

Event Time Altitude Azimuth Distance (km) Brightness Sun altitude
Rises 18:13:30 0° 295° (WNW) 3,045 6.0 -17.8°
Reaches altitude 10° 18:17:16 10° 326° (NNW) 2,346 4.8 -18.5°
Maximum altitude 18:19:25 12° 350° (N) 2,317 4.5 -18.9°
Drops below altitude 10° 18:21:46 10° 13° (NNE) 2,613 4.5 -19.3°
Enters shadow 18:22:52 - 22° (NNE) 2,844 4.6 -19.5°
